Regional Weather Roundup
Issued by NWS

Home | Current Version | Previous Version | Graphics & Text | Print | Product List | Glossary Off
Versions: 1 2 3 4 5 6 7 8 9 10 11 12 13 14 15 16 17 18 19 20 21 22 23 24 25 26 27 28 29 30 31 32 33 34 35 36 37 38 39 40 41 42 43 44 45 46 47 48 49 50

000
ASUS43 KDMX 240901
RWRIA

WEATHER ROUNDUP FOR IOWA
NATIONAL WEATHER SERVICE DES MOINES IA
400 AM CDT THU AUG 24 2017

NOTE: "FAIR" INDICATES FEW OR NO CLOUDS BELOW 12,000 FEET WITH NO
SIGNIFICANT WEATHER AND/OR OBSTRUCTIONS TO VISIBILITY.

* - THESE STATIONS ARE NOT NWS STATIONS...THUS NOT UNDER NWS
QUALITY CONTROL.  THEY ALSO DO NOT REPORT WEATHER SUCH
AS PRECIPITATION OR FOG.

IAZ001>003-012>014-020>022-031>034-043>046-241000-
   NORTHWEST IOWA

CITY           SKY/WX    TMP DP  RH WIND       PRES   REMARKS
CARROLL *      CLOUDY    63  61  94 SE9       30.04F
CHEROKEE *     CLOUDY    64  61  93 S6        30.02F
DENISON *      CLOUDY    64  59  82 S9        30.05F
LE MARS *      MOCLDY   N/A N/A N/A SE12G17   30.00S
ORANGE CITY *  MOCLDY    64  61  88 SE3       30.02S
SHELDON *      CLOUDY    63  61  94 SE8       30.01R
SIOUX CITY     CLEAR     62  60  93 SE10      29.99F
SPENCER        CLOUDY    64  60  87 E7        30.06R
STORM LAKE *   CLOUDY    63  59  88 S6        30.04S
$$

IAZ055>058-069>071-079>083-090>094-241000-
   SOUTHWEST IOWA

CITY           SKY/WX    TMP DP  RH WIND       PRES   REMARKS
ATLANTIC *     CLOUDY    61  59  94 NE6       30.07R
AUDUBON *      CLOUDY    63  57  82 S3        30.07F
CLARINDA *     FOG       55  55 100 CALM      30.08S VSB 1/2
COUNCIL BLFS * MOCLDY    63  61  94 S5        30.04R
CRESTON *      MOCLDY    59  55  88 S5        30.09R
HARLAN  *      CLOUDY    61  59  94 SE7       30.08S
LAMONI         CLEAR     61  56  83 S6        30.07S
RED OAK *      PTCLDY    57  57 100 CALM      30.05S
SHENANDOAH *   PTCLDY    57  57 100 CALM      30.05S
$$

IAZ047>049-059>061-072>074-084-241000-
   CENTRAL IOWA

CITY           SKY/WX    TMP DP  RH WIND       PRES   REMARKS
AMES           CLOUDY    59  59 100 E5        30.07R
ANKENY *       CLOUDY    61  59  94 CALM      30.09R
BOONE *        MOCLDY    61  59  94 CALM      30.06F
CHARITON *     CLOUDY    63  57  82 SE3       30.07S
DES MOINES     LGT RAIN  65  59  81 CALM      30.08R
GRINNELL*      CLOUDY    61  55  81 CALM      30.09R
KNOXVILLE *    MOCLDY    63  54  72 CALM      30.06R
MARSHALLTOWN   LGT RAIN  62  59  90 CALM      30.08R
NEWTON *       CLOUDY    61  55  82 CALM      30.08R
PELLA *        MOCLDY    60  56  86 CALM      30.08R
PERRY *        DRIZZLE   62  61  94 S8        30.05F
$$

IAZ004>006-015-016-023>025-035-036-241000-
   NORTH CENTRAL IOWA

CITY           SKY/WX    TMP DP  RH WIND       PRES   REMARKS
ALGONA *       CLOUDY    61  61 100 NE6       30.08F
CLARION *      CLOUDY    61  61 100 CALM      30.08R
ESTHERVILLE    CLOUDY    61  61 100 NE6       30.06R
MASON CITY     CLOUDY    60  57  89 CALM      30.10R
FOREST CITY *  LGT RAIN  61  59  94 CALM      30.08F
WEBSTER CITY * CLOUDY    61  59  94 SE6       30.04F
IOWA FALLS *   RAIN      61  59  92 CALM      30.09S
$$

IAZ007>011-017>019-026>030-037>042-050>054-066-241000-
   NORTHEAST IOWA

CITY           SKY/WX    TMP DP  RH WIND       PRES   REMARKS
CEDAR RAPIDS   CLOUDY    59  56  89 NW3       30.07R
CHARLES CITY * CLOUDY    57  55  94 E5        30.09F
CLINTON *      CLEAR     53  52  96 N5        30.07S
DECORAH *      PTCLDY    52  52 100 CALM      30.10R
MONTICELLO *   CLOUDY    52  52 100 CALM      30.07S
OELWEIN *      CLOUDY    55  55 100 NE7       30.10R
WATERLOO       CLOUDY    58  55  90 CALM      30.07R
$$

IAZ064-065-067-068-078-241000-
   EAST CENTRAL IOWA

CITY           SKY/WX    TMP DP  RH WIND       PRES   REMARKS
DAVENPORT      PTCLDY    51  50  96 N6        30.08S
IOWA CITY      MOCLDY    60  56  86 CALM      30.08R
MUSCATINE *    PTCLDY    57  54  88 CALM      30.06F
QUAD CITIES    PTCLDY    55  52  89 CALM      30.06S
$$

IAZ062-063-075>077-085>089-095>099-241000-
   SOUTHEAST IOWA

CITY           SKY/WX    TMP DP  RH WIND       PRES   REMARKS
BURLINGTON     CLOUDY    59  56  89 CALM      30.06F
FAIRFIELD *    CLOUDY    61  54  77 CALM      30.06S
FORT MADISON * CLOUDY    61  59  94 CALM      30.07F
KEOKUK *       MOCLDY    59  57  94 MISG      30.06F
OSKALOOSA *      N/A     57  56  95 CALM      30.07S
OTTUMWA        PTCLDY    61  55  81 CALM      30.07R
WASHINGTON *   PTCLDY    57  57 100 SW5       30.08S
$$

ABBREVIATIONS USED IN REMARKS
   TC - TEMPERATURES IN CELSIUS
  WCI - WIND CHILL INDEX
   HX - HEAT INDEX
  VSB - VISIBILITY
$$




USA.gov is the U.S. government's official web portal to all federal, state and local government web resources and services.